Weather in Belogorie

Ukraine / Khmelnitsky District     50°00′05″N   26°24′42″E
temp.,
°C
wind,
m/s
gust,
m/s
humid.,
%
clouds,
%
prec.,
mm/h
press.,
hPa
HPBL,
m
30 june, thu
thu3000:00+20e48792 0.0 1016147
03:00+18sse338324 0.1 101535
06:00+18sse33833 0.0 101553
09:00+23e44695 0.0 1016368
12:00+27e34574 0.0 1015871
15:00+29e33521 0.0 10151503
18:00+29ene345432 0.0 10141561
21:00+23ene48807 0.2 1015154
1 july, fri
fri100:00+20e410825 0.0 1016191
03:00+18ese4890100 0.0 1017142
06:00+18ese3791100 0.0 1017156
09:00+23ese57705 0.0 1018512
12:00+26ese5655100 0.0 10181249
15:00+28ese55461 0.0 10171742
18:00+27e55530 0.0 10161386
21:00+21e511660 0.0 1017212
2 july, sat
sat200:00+19ese4115981 0.0 1018201
03:00+17ese49610 0.0 1019170
06:00+17se38715 0.0 1020145
09:00+23sse57571 0.0 1020395
12:00+28sse45456 0.0 10201241
15:00+30s244172 0.0 10192378
18:00+28w225973 0.0 1019432
21:00+19wnw599688 2.7 1020299
3 july, sun
sun300:00+17wnw379896 0.8 1021249
03:00+17nw379899 1.0 1021294
06:00+17wnw3698100 2.6 1020403
09:00+18nw3491100 3.1 1020396
12:00+21wnw457765 0.1 1020793
15:00+23nw4457100 0.2 10191711
18:00+23nnw136294 0.0 1019609
21:00+19nnw33796 0.0 101939
4 july, mon
mon400:00+16nne11905 0.0 101911
03:00+15wnw11901 0.0 101911
06:00+15w22890 0.0 101915
09:00+20wnw23700 0.0 1019411
12:00+24nw335735 0.0 10191324
15:00+25n336045 0.3 10181336
18:00+25nnw335939 0.2 10181152
21:00+21n227811 0.3 101831